Terug naar catalogus

FENGYUN 1C DEB

ActiefPO
NORAD 30945·DEBRIS·🇨🇳 China

Gelanceerd May 10, 1999 vanaf Taiyuan Satellite Launch Center

Loading…

Volgende Passages (komende 24 uur)

TLE

VersSource: Space-Track

Epoch: Sep 12, 2026, 01:38 UTC

1 30945U 99025BAK 26255.06839056  .00001957  00000-0  75010-3 0  9991
2 30945  99.3797 290.3125 0028356 334.2117  81.1611 14.31633723  3233

Volg FENGYUN 1C DEB in realtime met AllMySat

Download on the App Store